This demonstration page uses our WeatherBlox Daily Observations layout. Learn more.

38.88101, -77.10428

Hourly Observations for August 14, 2018

Temp ( °F °C ) Dew Point ( °F °C ) Humidity (%) Winds ( mph kmh ) Pressure ( in mb ) Visibility ( mi km ) Precip ( " mm )
12:52 am 00:52 Clear 72 22.2 66 18.9 82 82 WSW 6 9 29.95 1014 10 16.0934 0 0
1:52 am 01:52 Partly Cloudy 72 22.2 66 18.9 82 82 W 8 13 29.93 1014 10 16.0934 0 0
2:52 am 02:52 Mostly Clear 71 21.7 65 18.3 81 81 WSW 5 7 29.93 1013 10 16.0934 0 0
3:52 am 03:52 Mostly Clear 70 21.1 64 17.8 82 82 SW 5 7 29.91 1013 10 16.0934 0 0
4:52 am 04:52 Mostly Clear 70 21.1 63 17.2 79 79 WSW 6 9 29.91 1013 10 16.0934 0 0
5:52 am 05:52 Mostly Clear 70 21.1 62 16.7 76 76 WNW 6 9 29.93 1014 10 16.0934 0 0
6:52 am 06:52 Mostly Sunny 70 21.1 61 16.1 73 73 WNW 5 7 29.95 1014 10 16.0934 0 0
7:52 am 07:52 Mostly Cloudy 73 22.8 61 16.1 66 66 WSW 5 7 29.96 1014 10 16.0934 0 0
8:52 am 08:52 Mostly Cloudy 75 23.9 61 16.1 62 62 W 8 13 29.96 1015 10 16.0934 0 0
9:52 am 09:52 Partly Cloudy 78 25.6 61 16.1 56 56 WNW 14 22 29.96 1015 10 16.0934 0 0
10:52 am 10:52 Partly Cloudy 80 26.7 62 16.7 54 54 WNW 13 20 29.96 1015 10 16.0934 0 0
11:52 am 11:52 Mostly Cloudy 81 27.2 62 16.7 53 53 W 8 13 29.96 1015 10 16.0934 0 0
12:52 pm 12:52 Partly Cloudy 84 28.9 63 17.2 49 49 NNW 10 17 29.95 1014 10 16.0934 0 0
1:52 pm 13:52 Mostly Cloudy 85 29.4 63 17.2 48 48 WNW 9 15 29.93 1014 10 16.0934 0 0
2:52 pm 14:52 Mostly Cloudy 85 29.4 63 17.2 48 48 W 8 13 29.92 1013 10 16.0934 0 0
3:52 pm 15:52 Mostly Cloudy 86 30 62 16.7 45 45 W 16 26 29.9 1013 10 16.0934 0 0
4:52 pm 16:52 Partly Cloudy 86 30 62 16.7 45 45 WNW 12 19 29.89 1012 10 16.0934 0 0
5:52 pm 17:52 Mostly Cloudy 84 28.9 62 16.7 48 48 W 12 19 29.91 1013 10 16.0934 0 0
6:52 pm 18:52 Mostly Cloudy 82 27.8 65 18.3 56 56 NW 10 17 29.93 1013 10 16.0934 0 0
7:52 pm 19:52 Mostly Cloudy 81 27.2 64 17.8 57 57 WNW 13 20 29.93 1014 10 16.0934 0 0
8:52 pm 20:52 Mostly Cloudy 79 26.1 65 18.3 62 62 WNW 9 15 29.95 1014 10 16.0934 0 0
9:19 pm 21:19 Clear with Nearby Thunderstorms 79 26.1 65 18.3 62 62 NNW 6 9 29.97 1015 10 16.0934 0 0
9:39 pm 21:39 Mostly Cloudy 79 26.1 64 17.8 60 60 VRB 3 6 29.97 1015 10 16.0934 0 0
9:43 pm 21:43 Mostly Cloudy 79 26.1 64 17.8 60 60 VRB 3 6 29.97 1015 10 16.0934 0 0
9:52 pm 21:52 Mostly Cloudy 79 26.1 64 17.8 60 60 Calm 29.97 1015 10 16.0934 0 0
10:52 pm 22:52 Mostly Cloudy 78 25.6 65 18.3 64 64 SW 6 9 29.97 1015 10 16.0934 0 0
11:52 pm 23:52 Mostly Cloudy 76 24.4 67 19.4 74 74 SSW 7 11 29.98 1015 10 16.0934 0 0

Powered by AerisWeather